"Pseudo-MPEC" for P10MiCO

Created 2019 Feb 20 14:18:05 UT using Find_Orb

Click here for an explanation of pseudo-MPECs

 
 Astrometry: 
     P10MiCO  C2019 02 09w9jAstrometry93_K1HyRWCJs'redacted;l#(7QVQw'M`NJTr=gF51
     P10MiCO  C2019 02 092hSZclickg+kC(/.@lv0+R;(YhCherea8wZUlCqdr.+h$nPx`*tJF51
     P10MiCO  C2019 02 096Mer`forS;HEl(T1NQ\._$DH(ly'explanation-]UWs(Cliva7BF51

Station data:
(F51) Pan-STARRS 1, Haleakala  (N20.707235 W156.255910)  US/Hawaii.
   Observers N. Primak, A. Schultz, S. Watters, J. Thiel, T. Goggia. Measurer
   PS1 Science Consortium. 1.8-m Ritchey-Chrétien + CCD.

Orbital elements:  P10MiCO
   Perihelion 2018 Sep 29.783737 +/- 165 TT = 18:48:34 (JD 2458391.283737)
Epoch 2019 Feb  9.0 TT = JDT 2458523.5   Earth MOID: 0.3159   Ma: 0.0231
M  82.84719541 +/- 90               (J2000 ecliptic)          AutoNEOCP
n   0.62660366 +/- 0.356            Peri.  309.91735 +/- 90
a   1.35251085 +/- 0.512            Node   108.37066 +/- 60
e   0.0489485 +/- 0.278             Incl.    8.63461 +/- 24
P   1.57/574.51d           H 22.4   G  0.15   U 12.0  SR
q 1.28630747 +/- 0.811    Q 1.41871423 +/- 33.2
From 3 observations 2019 Feb. 9 (34.5 min); mean residual 0".06
Residuals in arcseconds: 
190209 F51  .00   .06-    190209 F51  .00   .12+    190209 F51  .00   .06-    

Ephemerides (geocentric):
Date (UTC) HH   RA              Dec         delta   r     elong  mag " sig PA
---- -- -- --  -------------   -----------  ------ ------ -----  --- ---- ---
2019 02 20 14  11 22 27.708   +27 56 58.23  .39040 1.3559 156.6 21.9  38d 164
2019 02 20 15  11 22 24.938   +27 57 57.86  .39040 1.3559 156.6 21.9  38d 164
2019 02 20 16  11 22 22.164   +27 58 57.45  .39040 1.3559 156.6 21.9  38d 164
2019 02 20 17  11 22 19.385   +27 59 56.98  .39040 1.3560 156.6 21.9  39d 164
2019 02 20 18  11 22 16.602   +28 00 56.46  .39041 1.3560 156.6 21.9  39d 164
2019 02 20 19  11 22 13.815   +28 01 55.89  .39041 1.3560 156.6 21.9  39d 163
2019 02 20 20  11 22 11.022   +28 02 55.28  .39041 1.3560 156.6 21.9  39d 163
2019 02 20 21  11 22 08.226   +28 03 54.61  .39041 1.3561 156.7 21.9  39d 163
2019 02 20 22  11 22 05.424   +28 04 53.89  .39041 1.3561 156.7 21.9  39d 163
2019 02 20 23  11 22 02.619   +28 05 53.13  .39041 1.3561 156.7 21.9  39d 163
2019 02 21 00  11 21 59.809   +28 06 52.31  .39042 1.3562 156.7 21.9  39d 163
2019 02 21 01  11 21 56.994   +28 07 51.44  .39042 1.3562 156.7 21.9  40d 163
2019 02 21 02  11 21 54.175   +28 08 50.52  .39042 1.3562 156.7 21.9  40d 163
2019 02 21 03  11 21 51.352   +28 09 49.55  .39042 1.3563 156.7 21.9  40d 163
2019 02 21 04  11 21 48.524   +28 10 48.52  .39043 1.3563 156.7 21.9  40d 163
2019 02 21 05  11 21 45.691   +28 11 47.45  .39043 1.3563 156.7 21.9  40d 164
2019 02 21 06  11 21 42.855   +28 12 46.32  .39044 1.3563 156.7 21.9  40d 164
2019 02 21 07  11 21 40.013   +28 13 45.14  .39044 1.3564 156.7 21.9  41d 164
2019 02 21 08  11 21 37.168   +28 14 43.91  .39044 1.3564 156.8 21.9  41d 164
2019 02 21 09  11 21 34.318   +28 15 42.63  .39045 1.3564 156.8 21.9  41d 164
2019 02 21 10  11 21 31.464   +28 16 41.29  .39045 1.3565 156.8 21.9  41d 164
2019 02 21 11  11 21 28.605   +28 17 39.90  .39046 1.3565 156.8 21.9  41d 165
2019 02 21 12  11 21 25.742   +28 18 38.46  .39046 1.3565 156.8 21.9  41d 165
2019 02 21 13  11 21 22.875   +28 19 36.97  .39047 1.3566 156.8 21.9  41d 165
2019 02 21 14  11 21 20.004   +28 20 35.42  .39048 1.3566 156.8 21.9  41d 165
2019 02 21 15  11 21 17.128   +28 21 33.81  .39048 1.3566 156.8 21.9  41d 165
2019 02 21 16  11 21 14.248   +28 22 32.16  .39049 1.3566 156.8 21.9  41d 166
2019 02 21 17  11 21 11.363   +28 23 30.45  .39050 1.3567 156.8 21.9  41d 166
2019 02 21 18  11 21 08.475   +28 24 28.68  .39050 1.3567 156.8 21.9  41d 166
2019 02 21 19  11 21 05.582   +28 25 26.87  .39051 1.3567 156.8 21.9  42d 166
2019 02 21 20  11 21 02.685   +28 26 24.99  .39052 1.3568 156.8 21.9  42d 166
2019 02 21 21  11 20 59.783   +28 27 23.07  .39053 1.3568 156.9 21.9  42d 167
2019 02 21 22  11 20 56.878   +28 28 21.08  .39053 1.3568 156.9 21.9  42d 167
2019 02 21 23  11 20 53.968   +28 29 19.04  .39054 1.3569 156.9 21.9  42d 167
2019 02 22 00  11 20 51.054   +28 30 16.95  .39055 1.3569 156.9 21.9  42d 167
2019 02 22 01  11 20 48.136   +28 31 14.80  .39056 1.3569 156.9 21.9  42d 167
2019 02 22 02  11 20 45.214   +28 32 12.60  .39057 1.3569 156.9 21.9  42d 167
2019 02 22 03  11 20 42.287   +28 33 10.34  .39058 1.3570 156.9 21.9  42d 167
2019 02 22 04  11 20 39.357   +28 34 08.02  .39059 1.3570 156.9 21.9  42d 167
2019 02 22 05  11 20 36.422   +28 35 05.65  .39060 1.3570 156.9 21.9  42d 167
2019 02 22 06  11 20 33.483   +28 36 03.22  .39061 1.3571 156.9 21.9  42d 167
2019 02 22 07  11 20 30.540   +28 37 00.74  .39062 1.3571 156.9 21.9  42d 167
2019 02 22 08  11 20 27.593   +28 37 58.19  .39063 1.3571 156.9 21.9  42d 168
2019 02 22 09  11 20 24.642   +28 38 55.60  .39064 1.3572 156.9 21.9  42d 168
2019 02 22 10  11 20 21.687   +28 39 52.94  .39065 1.3572 156.9 21.9  42d 168
2019 02 22 11  11 20 18.728   +28 40 50.23  .39066 1.3572 156.9 21.9  43d 168
2019 02 22 12  11 20 15.765   +28 41 47.45  .39067 1.3572 156.9 21.9  43d 168
2019 02 22 13  11 20 12.797   +28 42 44.63  .39069 1.3573 156.9 21.9  43d 168